Regional Weather Roundup
Issued by NWS Wakefield, VA

Home | Current Version | Previous Version | Graphics & Text | Print | Product List | Glossary On
Versions: 1 2 3 4 5 6 7 8 9 10 11 12 13 14 15 16 17 18 19 20 21 22 23 24 25 26 27 28 29 30 31 32 33 34 35 36 37 38 39 40 41 42 43 44 45 46 47 48 49 50
000
ASUS41 KAKQ 141710
RWRAKQ

REGIONAL WEATHER ROUNDUP
NATIONAL WEATHER SERVICE WAKEFIELD VA
100 PM EDT SUN SEP 14 2014

Note: "fair" indicates few or no clouds below 12,000 feet with no
significant weather and/or obstructions to visibility. * = Denotes
station may not report precipitation (e.g., rain,snow,etc.),
thunder or fog.

VAZ042-051-052>054-056-141800-
NORTHERN VIRGINIA

CITY           SKY/WX    TMP DP  RH WIND       PRES   REMARKS
WASH NATIONAL  PTSUNNY   70  46  42 VRB6      30.30F
DULLES         PTSUNNY   65  45  48 VRB5      30.30F
FORT BELVOIR   MOSUNNY   68  47  46 N5        30.29F
QUANTICO       MOSUNNY   67  46  47 VRB6      30.30F
FREDERICKSBRG* MOSUNNY   68  49  51 N3        30.28F
STAFFORD*      MOSUNNY   66  49  54 CALM      30.33F
WARRENTON      MOSUNNY   68  54  61 NE5       30.29F
CULPEPER*      MOSUNNY  N/A N/A N/A NE3       30.30F
MANASSAS*      NOT AVBL
LEESBURG*      PTSUNNY   63  50  63 CALM      30.31F
WINCHESTER     MOSUNNY   63  43  48 CALM      30.30F
FRONT ROYAL*   MOSUNNY   64  46  52 N8        30.29F
LURAY*         MOSUNNY   68  45  42 CALM      30.29F
$$

VAZ048-049-060>072-079>083-141800-
CENTRAL AND SOUTH CENTRAL VIRGINIA...AND NORTH CENTRAL NORTH CAROLINA

CITY           SKY/WX    TMP DP  RH WIND       PRES   REMARKS
RICHMOND       PTSUNNY   72  50  45 VRB3      30.27F
CHESTERFIELD*  CLOUDY   N/A N/A N/A N7        30.29F
PETERSBURG*    CLOUDY    69  50  50 NE3       30.28F
HANOVER        MOSUNNY   69  53  56 VRB5      30.29F
TAPPAHANNOCK*  MOSUNNY   69  47  44 E3        30.28F
CHARLOTTSVILLE CLOUDY    65  47  52 CALM      30.29F
ORANGE*        CLOUDY    68  46  45 N5        30.31F
LOUISA*        MOSUNNY   68  50  52 CALM      30.28F
FARMVILLE*     CLOUDY    68  46  45 E5        30.28S
CREWE*         CLOUDY    69  52  54 N3        30.29F
FORT PICKETT*  CLOUDY    68  52  56 NE7       30.29S
LUNENBURG*     CLOUDY    66  52  61 NE3       30.29F
SOUTH HILL*    CLOUDY    66  55  68 N6        30.34S
LAWRENCEVILLE* CLOUDY    65  57  76 CALM      30.28S
ROANOKE RAPIDS CLOUDY    68  59  73 N7        30.26F
RALEIGH        CLOUDY    67  58  72 NE7       30.27F
$$

VAZ088>098-141800-
SOUTHEAST VIRGINIA

CITY           SKY/WX    TMP DP  RH WIND       PRES   REMARKS
NORFOLK        SUNNY     71  53  52 VRB6      30.26F
VIRGINIA BEACH PTSUNNY   71  56  58 NE12      30.25F
NORFOLK NAVAL  PTSUNNY   71  56  58 N13       30.27F
WEST POINT*    NOT AVBL
NEWPORT NEWS   MOSUNNY   74  56  53 NE8       30.26F
LANGLEY AFB    MOSUNNY   70  57  64 NE9       30.26F
FORT EUSTIS    PTSUNNY   71  52  49 N5        30.25S
WILLIAMSBURG*  MOSUNNY   75  57  53 CALM      30.27F
HR EXEC AP*    MOSUNNY   72  57  60 NE10      30.27F
FRANKLIN*        N/A     72  57  60 NE6       30.25F
WAKEFIELD      PTSUNNY   72  55  55 N3        30.26F
$$

VAZ020-022-025-037-045-141800-
WEST CENTRAL AND SOUTHWEST VIRGINIA

CITY           SKY/WX    TMP DP  RH WIND       PRES   REMARKS
STAUNTON*      CLOUDY    61  46  58 W3        30.32F
HOT SPRINGS VA NOT AVBL
LYNCHBURG      CLOUDY    62  47  57 CALM      30.32F
DANVILLE       PTSUNNY   67  51  56 NE9       30.30F
SOUTH BOSTON*  NOT AVBL
MARTINSVILLE   CLOUDY    66  54  65 CALM      30.33F
ROANOKE        PTSUNNY   63  50  62 SE8       30.32F
BLACKSBURG     CLOUDY    59  55  88 E5        30.33F
DUBLIN*        CLOUDY    61  54  78 CALM      30.33S
MARION*        CLOUDY    61  55  81 E6        30.33S
HILLSVILLE*    CLOUDY    59  51  75 S7        30.33S
RICHLANDS*     CLOUDY    68  59  72 CALM      30.27S
WISE*          CLOUDY    64  55  72 N3        30.28S
ABINGDON*      LGT RAIN  66  60  80 NE3       30.26S
$$

MDZ021>025-VAZ099-100-141800-
SOUTHERN MARYLAND AND THE DELMARVA PENINSULA

CITY           SKY/WX    TMP DP  RH WIND       PRES   REMARKS
PATUXENT RIVER PTSUNNY   65  47  52 NE5       30.28F
BAY BRIDGE APT   N/A     63  46  55 NW7       30.30S
LEONARDTOWN    CLOUDY    63  48  59 CALM      30.30S
DOVER          MOSUNNY   65  49  57 N8        30.26F
GEORGETOWN     PTSUNNY   67  48  50 NE10      30.27F
EASTON         MOSUNNY   66  50  55 CALM      30.31F
CAMBRIDGE      MOSUNNY   66  48  52 N5        30.27F
SALISBURY      PTSUNNY   71  51  49 NW6       30.26F
OCEAN CITY     PTSUNNY   68  51  54 NE9       30.25F
WALLOPS ISLAND MOSUNNY   70  51  51 N5        30.26F
ACCOMACK*      SUNNY     70  46  43 N6        30.25F
$$

NCZ012>017-030>032-141800-
EASTERN NORTH CAROLINA

CITY           SKY/WX    TMP DP  RH WIND       PRES   REMARKS
ELIZABETH CITY PTSUNNY   72  60  66 NE13      30.24S
AHOSKIE*       PTSUNNY   70  57  63 NE6       30.25F
EDENTON*       MOSUNNY   74  62  64 NE10      30.23F
CURRITUCK*     CLOUDY    72  56  58 N13G18    30.25S
KILL DEVIL HLS CLOUDY    72  61  68 N8        30.22S
MANTEO         CLOUDY    72  62  68 N17G24    30.23S
CAPE HATTERAS  CLOUDY    74  67  78 NE13G23   30.19F
TARBORO*       CLOUDY    74  61  64 N5        30.25F
GOLDSBORO      CLOUDY    72  64  76 VRB3      30.22S
WASHINGTON     PTSUNNY   72  62  70 NE8       30.23F
GREENVILLE     PTSUNNY   75  59  57 E8        30.24F
NEW BERN       CLOUDY    75  64  69 NE10      30.22F
WILMINGTON     CLOUDY    74  66  76 N6        30.20F
$$

VAZ048-141800-
ELSEWHERE

CITY           SKY/WX    TMP DP  RH WIND       PRES   REMARKS
HARRISBURG PA  PTSUNNY   63  46  54 W9        30.29F
BALTIMORE      PTSUNNY   66  47  50 VRB5      30.28F
ANNAPOLIS      MOSUNNY   65  49  56 N6        30.28F
ANDREWS AFB    MOSUNNY   66  47  51 VRB3      30.28F
WILMINGTON DE  MOSUNNY   64  48  56 N7        30.28F
PHILADELPHIA   PTSUNNY   64  46  52 W6        30.27F
WILDWOOD NJ*   MOSUNNY   64  50  59 CALM      30.27S
ATLANTIC CITY  PTSUNNY   67  53  61 VRB3      30.25S
HENDERSON NC   CLOUDY    65  55  67 N3        30.29S
GREENSBORO     CLOUDY    66  54  65 E5        30.28F
ROCKY MOUNT    CLOUDY    73  60  63 NE7       30.25F
FAYETTEVILLE   CLOUDY    69  60  73 NE6       30.24S
CHARLOTTE      CLOUDY    69  54  58 E8        30.27F
$$

VAZ100-141800-
MARINE

STATION/POSITION TIME  TEMP    WIND        PRES    WAVE   SWELL
                       AIR SEA DIR/SP/G            HT/PER HT/PER
                 (UTC) (F)     (DEG/KT/KT) (MB)    (FT/S) (FT/S)
44066 TX TWR #4  1700   62 73   20/ 10/ 14 1023.1R   5/ 6   3/ 6
CAPE MAY NJ      1700   63 75  320/  6/  9 1024.4S
LEWES DE         1700   62 72  360/  9/ 10 1024.8F
15NM E FENWICK I 1700   63 72              1024.2F   4/ 6
OCEAN-CITY-INLET 1700   65 71   20/  5/  7 1024.2F
WACHAPREAGUE VA  1700   68 72   60/  5/ 12 1024.4F
THOMAS POINT MD  1700   61 74   40/  8/ 11 1026.5F
GOOSES REEF MD   1700   63      30/  8/ 12 1026.1S
COVE POINT MD    1700   62      40/  8/ 10 1025.5S
SOLOMONS ISLAND  1700      76                N/A
BISHOPS HEAD MD  1700   65 71   20/  5/  9 1024.7F
PINEY POINT MD   1700          350/  1/  3   N/A
POTOMAC MD       1700   64      40/ 10/ 12 1024.9F
CAMBRIDGE MD     1700   63 75  310/  5/  6 1024.9F
LEWISETTA VA     1700   65 73   30/  5/  6 1024.8F
RAPPAHANNOCK LGT 1700          350/  9/ 11 1025.2F
STINGRAY PT      1700   65      20/ 10/ 12   N/A
YORK RVR RNG VA  1700   66      50/ 11/ 13 1024.3F
YORKTOWN VA      1700   68 77   40/  9/ 11 1024.4F
JAMESTOWN VA     1700   68     350/  2/  4   N/A
DOMINION TERM VA 1700   69      30/  7/ 11 1024.8F
KIPTOPEKE VA     1700      80   70/  6/  9   N/A
CHES BAY BRIDGE  1700   67 76   20/  6/  8 1024.0F
CAPE HENRY VA    1700   67      40/ 12/ 15 1023.2F
CHESAPEAKE LGHT  1600   67      30/ 16/ 19 1025.0S
WILLOUBY STN VA  1700   66      30/ 10/ 13 1023.5S
S CRANEY ISL VA  1700          360/ 11/ 14 1024.3S
CAPE HENRY BUOY  1700      76                N/A     4/ 7
1ST LANDING BUOY 1700   68      40/ 10/ 14 1024.0F
CAPE CHARLES BUO 1600      75                N/A     5/ 6   2/13
OFFSHORE WE BUOY 1700      75                N/A     5/ 7   3/ 7
64NM E OF VA BCH 1700   71 79   20/ 17/ 21 1022.5S   6/ 7   2/15
DUCK PIER NC     1700   69 77   10/ 18/ 20 1023.0R
44100 DUCK FRF   1700      75                N/A     6/ 7
44056 DUCK FRF   1700                        N/A     6/ 7
OREGON INLET NC  1700   72 78  360/ 12/ 20 1023.0F
HATTERAS NC      1700   74 80   20/ 17/ 21 1022.7F
DIAMOND SHLS NC  1700   75     350/ 17/ 21 1021.4F   4/ 8   2/ 8
CAPE LOOKOUT NC  1600   74      30/ 19/ 21 1022.2F
$$



USA.gov is the U.S. government's official web portal to all federal, state and local government web resources and services.